Details for Norwegian Air Shuttle at ENGM




Go Back


Latest METAR
Local Time

ENGM 252150Z 35005KT 320V030 CAVOK 19/05 Q1026

26/05/2018, 00:13:45

Description
Results
Norwegian Air Shuttle Logo
Number of Pilots based at ENGM
0 Pilots Based here
Number of Norwegian Air Shuttle Flights Departed from ENGM
6 Flights Departed
Number of Norwegian Air Shuttle Flights Arrived at ENGM
6 Flights Arrived
Number of Norwegian Air Shuttle Schedules Departing from ENGM
243 Schedules
Number of Norwegian Air Shuttle Schedules Arriving at ENGM
246 Schedules
Number of Norwegian Air Shuttle Schedules Departing from ENGM availible today
124 Schedules Today
Number of Norwegian Air Shuttle Schedules Arriving at ENGM availible today
126 Schedules Today
Average Landing Rate at ENGM
-202 fpm
Norwegian Air Shuttle Average Landing Rate at ENGM
-95 fpm
Total Fuel Purchased at ENGM by Norwegian Air Shuttle
33,435.65 kgs / 73,712.23 lbs

Pilots Based at ENGM


Pilot ID
Pilot Name
Pilot Rank
No. of Flights
No. of Flying Hours
There are no pilots assigned to this hub!   Will you be the first?
Content